Flag for Puerto Rico Weather past 2 weeks in San Juan, Puerto Rico

Now
81 °F

Scattered clouds.


Feels Like: 85 °F
Forecast: N/A
Wind: 14 mph from East

Location: Luis Munoz Marin

Current Time: Mar 28, 2015 at 7:07:39 PM

Latest Report: Mar 28, 2015 at 5:56 PM


Visibility: 10 mi

Pressure: 30.06 "Hg

Humidity: 69%

Dew point: 70 °F

Location of San JuanLocation

Historic Weather in San Juan — Graph

°F

San Juan temperature yesterday

Maximum temperature yesterday: 86 °F (at 12:56 PM)
Minimum temperature yesterday: 75 °F (at 2:56 AM)
Average temperature yesterday: 80 °F

Past Weeks' High & Low Weather Summary

 TemperatureHumidityPressure
High87 °F (Mar 28, 11:56 AM)94% (Mar 13, 7:56 PM)30.16 "Hg (Mar 13, 7:56 PM)
Low71 °F (Mar 17, 4:56 AM)48% (Mar 28, 11:56 AM)29.94 "Hg (Mar 18, 3:56 PM)
Average78 °F77%30.04 "Hg
* Reported Mar 13 5:56 PM — Mar 28 5:56 PM, San Juan, Weather by CustomWeather, © 2015

Note: Actual official high and low records may vary slightly from our data, if they occured in-between our weather recording intervals... More about our weather records

Advertising

San Juan weather history for previous 24 hours

 ConditionsComfort  
Time TempWeatherWind HumidityBarometerVisibility
5:56 PM
Sat, Mar 28
81 °FScattered clouds.14 mph69%30.06 "Hg10 mi
4:56 PM82 °FScattered clouds.17 mph67%30.05 "Hg10 mi
3:56 PM83 °FScattered clouds.22 mph68%30.05 "Hg10 mi
2:56 PM85 °FPassing clouds.17 mph63%30.06 "Hg10 mi
1:56 PM87 °FScattered clouds.16 mph61%30.08 "Hg10 mi
12:56 PM85 °FScattered clouds.14 mph63%30.11 "Hg10 mi
11:56 AM87 °FScattered clouds.6 mph48%30.14 "Hg10 mi
10:56 AM86 °FScattered clouds.12 mph49%30.15 "Hg10 mi
9:56 AM84 °FScattered clouds.7 mph55%30.16 "Hg10 mi
8:56 AM81 °FPassing clouds.5 mph67%30.15 "Hg10 mi
7:56 AM77 °FScattered clouds.8 mph82%30.13 "Hg10 mi
6:56 AM74 °FPassing clouds.3 mph91%30.09 "Hg10 mi
5:56 AM74 °FPartly cloudy.3 mph94%30.07 "Hg10 mi
4:56 AM75 °FLight rain. Passing clouds.5 mph85%30.05 "Hg10 mi
3:56 AM75 °FPassing clouds.No wind82%30.04 "Hg10 mi
2:56 AM75 °FPassing clouds.No wind82%30.04 "Hg10 mi
1:56 AM75 °FPassing clouds.No wind82%30.06 "Hg10 mi
12:56 AM76 °FPassing clouds.No wind80%30.07 "Hg10 mi
11:56 PM
Fri, Mar 27
77 °FPassing clouds.5 mph77%30.09 "Hg10 mi
10:56 PM76 °FPassing clouds.7 mph80%30.10 "Hg10 mi
9:56 PM77 °FPassing clouds.8 mph77%30.10 "Hg10 mi
8:56 PM77 °FPassing clouds.9 mph79%30.10 "Hg10 mi
7:56 PM78 °FPassing clouds.12 mph76%30.07 "Hg10 mi
Weather by CustomWeather, © 2015

See weather overviewHow to use our weather pages